[[{"header":{"parameterUnit":"m.s-1","parameterCategory":1,"la1":30.2992,"la2":30.254,"lo1":-89.0895,"lo2":-89.0443,"dy":0.0025,"dx":0.0025,"nx":19,"ny":19,"refTime":"2026-04-29T09:00:00:Z","depth":0,"parameterNumber":2,"parameterNumberName":"U-component_of_WINDS"},"data":[0,0,0,3.5741,3.5744,3.5894,3.5894,3.6102,3.6104,0,0,0,0,0,0,0,0,0,0,0,3.5706,3.5708,3.5741,3.5745,3.5894,3.5894,3.6101,3.6104,0,0,0,0,0,0,0,0,0,0,0,3.5705,3.5707,3.5709,3.5745,3.5894,3.5895,3.6101,3.5983,0,0,0,0,0,0,0,0,0,0,3.5835,3.5811,3.5707,3.5709,3.5746,3.5894,3.5895,3.5977,3.599,3.6041,0,3.6088,0,3.6099,3.6119,3.6119,0,0,0,3.5738,3.58,3.5832,3.571,3.5748,3.5893,3.5825,3.5984,3.5999,3.6059,3.6091,3.6098,3.6103,3.612,3.6121,3.6434,3.6435,0,0,3.573,3.5738,3.5822,3.5842,3.582,3.582,3.5829,3.5993,3.6029,3.6092,3.6103,3.6106,3.6122,3.6123,3.6432,3.6434,0,0,0,3.571,3.5733,3.576,3.5834,3.586,3.5824,3.5835,3.6021,3.603,3.6105,3.6109,3.6123,3.6126,3.643,3.6433,3.6526,0,0,0,3.5705,3.5721,3.5757,3.5763,3.5857,3.5942,3.5861,3.6018,3.6036,3.6107,3.6123,3.6128,3.6428,3.6431,3.6519,3.6568,0,0,0,3.5693,3.572,3.5744,3.5763,3.5828,3.594,3.5957,3.6022,3.6039,3.612,3.6128,3.6427,3.6431,3.6513,3.6558,3.665,0,0,0,3.5683,3.5827,3.5746,3.5909,3.5827,3.5997,3.5956,3.6082,3.6163,3.6124,3.6428,3.6432,3.6511,3.6552,3.6644,3.6727,3.6764,0,0,3.587,3.585,3.5945,3.5877,3.6063,3.5973,3.6173,3.624,3.6241,3.6369,3.6377,3.6521,3.6557,3.6649,3.6969,3.6997,0,0,0,3.6007,3.6075,3.6123,3.6199,3.6253,3.6302,3.6337,3.6361,3.6469,3.6309,3.6581,3.6602,3.6655,3.6695,3.6719,3.6763,3.6452,3.6451,3.6451,3.6283,3.6275,3.6431,3.6441,3.6516,3.6549,3.6609,3.6647,3.662,3.6684,3.6721,3.6916,3.6963,3.6981,3.7027,3.6767,3.6768,3.6768,3.6768,3.6554,3.6647,3.6606,3.6742,3.6733,3.6848,3.6886,3.6862,3.6967,3.6888,3.6935,3.6846,3.7013,3.7052,3.6775,3.6774,3.6773,3.6773,3.6772,3.673,3.6774,3.6801,3.6908,3.6993,3.6999,3.7101,3.709,3.7081,3.7128,3.7164,3.7162,3.7157,3.7146,3.7147,3.7148,3.7148,3.7149,3.7149,3.6902,3.6929,3.7016,3.7084,3.713,3.719,3.7226,3.7272,3.7319,3.7304,3.7304,3.7268,3.7032,3.697,3.716,3.7158,3.7156,3.7155,3.7155,3.7174,3.711,3.7244,3.7291,3.7369,3.7452,3.7438,3.7532,3.7568,3.7619,3.7574,3.7401,3.7381,3.7361,3.731,3.7576,3.7576,3.7576,3.7576,3.732,3.7309,3.7442,3.7517,3.7589,3.7589,3.774,3.7769,3.779,3.7812,3.7773,3.7705,3.7686,3.7677,3.765,3.7603,3.7937,3.7937,3.7938,3.7485,3.7481,3.761,3.7628,3.7689,3.7741,3.7882,3.7969,3.798,3.7952,3.7828,3.7813,3.7704,3.767,3.7636,3.7595,3.7508,0,0]},{"header":{"parameterUnit":"m.s-1","parameterCategory":1,"la1":30.2992,"la2":30.254,"lo1":-89.0895,"lo2":-89.0443,"dy":0.0025,"dx":0.0025,"nx":19,"ny":19,"refTime":"2026-04-29T09:00:00:Z","depth":0,"parameterNumber":3,"parameterNumberName":"V-component_of_WINDS"},"data":[0,0,0,3.9973,3.9975,4.0036,4.0036,4.0118,4.0119,0,0,0,0,0,0,0,0,0,0,0,3.9959,3.996,3.9973,3.9975,4.0036,4.0036,4.0118,4.0119,0,0,0,0,0,0,0,0,0,0,0,3.9959,3.996,3.9961,3.9975,4.0036,4.0036,4.0118,4.007,0,0,0,0,0,0,0,0,0,0,4.0009,4.0001,3.9959,3.9961,3.9976,4.0036,4.0037,4.0067,4.0073,4.0092,0,4.0112,0,4.0117,4.0125,4.0125,0,0,0,3.9971,3.9996,4.0009,3.9961,3.9976,4.0036,4.0008,4.007,4.0076,4.0099,4.0113,4.0116,4.0118,4.0125,4.0126,4.0253,4.0254,0,0,3.9968,3.9972,4.0005,4.0014,4.0007,4.0006,4.001,4.0074,4.0089,4.0114,4.0118,4.012,4.0126,4.0126,4.0253,4.0254,0,0,0,3.9961,3.9969,3.9981,4.001,4.0021,4.0008,4.0012,4.0086,4.0089,4.0119,4.0121,4.0126,4.0127,4.0252,4.0253,4.0294,0,0,0,3.9958,3.9965,3.998,3.9983,4.002,4.0055,4.0023,4.0085,4.0092,4.012,4.0126,4.0128,4.0251,4.0253,4.0291,4.0312,0,0,0,3.9954,3.9965,3.9975,3.9983,4.001,4.0054,4.0061,4.0086,4.0093,4.0125,4.0128,4.0251,4.0252,4.0289,4.0308,4.0347,0,0,0,3.9949,4.001,3.9976,4.0045,4.0009,4.008,4.006,4.0112,4.0145,4.0127,4.0251,4.0253,4.0288,4.0306,4.0344,4.0379,4.0394,0,0,4.0028,4.002,4.006,4.0031,4.0109,4.007,4.0153,4.0178,4.0177,4.0228,4.0231,4.0292,4.0308,4.0346,4.0481,4.0493,0,0,0,4.0086,4.0115,4.0135,4.0167,4.0189,4.0208,4.0221,4.023,4.0273,4.0205,4.0317,4.0326,4.0348,4.0365,4.0375,4.0393,4.0261,4.0261,4.0261,4.0202,4.0199,4.0265,4.0269,4.03,4.0312,4.0336,4.035,4.0337,4.0364,4.0378,4.0461,4.048,4.0488,4.0507,4.0397,4.0398,4.0398,4.0398,4.0317,4.0356,4.0339,4.0396,4.0391,4.0439,4.0453,4.0442,4.0484,4.045,4.0469,4.043,4.0502,4.0518,4.0401,4.04,4.04,4.04,4.0399,4.0391,4.0409,4.0421,4.0466,4.0501,4.0503,4.0544,4.0539,4.0533,4.0553,4.0566,4.0565,4.0563,4.056,4.056,4.056,4.0561,4.0561,4.0561,4.0462,4.0474,4.0511,4.054,4.056,4.0584,4.0598,4.0616,4.0634,4.0626,4.0627,4.0609,4.051,4.0484,4.0565,4.0565,4.0564,4.0564,4.0563,4.0577,4.055,4.0607,4.0627,4.066,4.0694,4.0687,4.0725,4.0739,4.076,4.0739,4.0667,4.0657,4.0649,4.0628,4.0741,4.0741,4.0741,4.0741,4.0638,4.0633,4.069,4.0722,4.0752,4.0752,4.0814,4.0825,4.0831,4.084,4.0823,4.0794,4.0786,4.0781,4.077,4.075,4.0891,4.0892,4.0892,4.0707,4.0705,4.076,4.0769,4.0794,4.0816,4.0874,4.0909,4.0911,4.0898,4.0845,4.0839,4.0793,4.0779,4.0763,4.0745,4.0708,0,0]}]]